| time (UTC) | temp F | wind direction | speed knots | gust knots | rain 1hr in | rain 24hr in | rain mn in | humidity % | barometer mb |
| 20260505041505 | 73 | 129 | 1.7 | 9.6 | 0.00 | 0.00 | 0.00 | 77 | 1009.9 |
| 20260505041006 | 73 | 204 | 4.3 | 9.6 | 0.00 | 0.00 | 0.00 | 77 | 1010.0 |
| 20260505040506 | 73 | 124 | 0.9 | 7.8 | 0.00 | 0.00 | 0.00 | 77 | 1009.9 |
| 20260505035505 | 73 | 178 | 4.3 | 6.1 | 0.00 | 0.00 | 0.00 | 77 | 1010.2 |
| 20260505035009 | 73 | 131 | 0.9 | 7.8 | 0.00 | 0.00 | 0.00 | 76 | 1010.1 |
| 20260505034005 | 73 | 165 | 1.7 | 8.7 | 0.00 | 0.00 | 0.00 | 76 | 1010.1 |
| 20260505033504 | 73 | 150 | 2.6 | 6.1 | 0.00 | 0.00 | 0.00 | 76 | 1010.2 |
| 20260505033005 | 73 | 117 | 3.5 | 10.4 | 0.00 | 0.00 | 0.00 | 76 | 1010.5 |
| 20260505032506 | 73 | 142 | 0.9 | 10.4 | 0.00 | 0.00 | 0.00 | 76 | 1010.4 |
| 20260505032005 | 73 | 113 | 3.5 | 7.8 | 0.00 | 0.00 | 0.00 | 76 | 1010.4 |
| 20260505031505 | 73 | 180 | 4.3 | 7.8 | 0.00 | 0.00 | 0.00 | 76 | 1010.4 |
| 20260505031005 | 74 | 176 | 3.5 | 9.6 | 0.00 | 0.00 | 0.00 | 75 | 1010.3 |
| 20260505030506 | 74 | 136 | 3.5 | 9.6 | 0.00 | 0.00 | 0.00 | 75 | 1010.4 |
| 20260505030007 | 74 | 160 | 6.1 | 7.8 | 0.00 | 0.00 | 0.00 | 75 | 1010.3 |
| 20260505025505 | 74 | 164 | 0.9 | 8.7 | 0.00 | 0.00 | 0.00 | 75 | 1010.2 |
| 20260505025006 | 74 | 229 | 5.2 | 12.2 | 0.00 | 0.00 | 0.00 | 75 | 1010.1 |
| 20260505024508 | 74 | 173 | 8.7 | 11.3 | 0.00 | 0.00 | 0.00 | 75 | 1010.1 |
| 20260505024005 | 74 | 209 | 1.7 | 8.7 | 0.00 | 0.00 | 0.00 | 75 | 1010.1 |
| 20260505023505 | 74 | 194 | 1.7 | 7.8 | 0.00 | 0.00 | 0.00 | 75 | 1010.2 |
| 20260505023006 | 74 | 92 | 1.7 | 7.8 | 0.00 | 0.00 | 0.00 | 75 | 1010.1 |
| 20260505022506 | 74 | 162 | 7.0 | 9.6 | 0.00 | 0.00 | 0.00 | 74 | 1010.2 |
| 20260505022002 | 74 | 177 | 3.5 | 9.6 | 0.00 | 0.00 | 0.00 | 74 | 1010.2 |
| 20260505021505 | 74 | 216 | 2.6 | 7.8 | 0.00 | 0.00 | 0.00 | 74 | 1010.1 |
| 20260505021006 | 74 | 139 | 3.5 | 7.8 | 0.00 | 0.00 | 0.00 | 74 | 1010.1 |
| 20260505020007 | 74 | 185 | 3.5 | 10.4 | 0.00 | 0.00 | 0.00 | 74 | 1009.8 |
| 20260505015506 | 74 | 122 | 3.5 | 10.4 | 0.00 | 0.00 | 0.00 | 74 | 1009.6 |
| 20260505015008 | 74 | 134 | 0.9 | 6.1 | 0.00 | 0.00 | 0.00 | 74 | 1009.7 |
| 20260505014506 | 74 | 157 | 1.7 | 9.6 | 0.00 | 0.00 | 0.00 | 74 | 1009.8 |
| 20260505013507 | 74 | 146 | 1.7 | 8.7 | 0.00 | 0.00 | 0.00 | 74 | 1009.5 |
| 20260505013006 | 74 | 131 | 1.7 | 8.7 | 0.00 | 0.00 | 0.00 | 73 | 1009.6 |
| 20260505012505 | 74 | 153 | 2.6 | 8.7 | 0.00 | 0.00 | 0.00 | 73 | 1009.6 |
| 20260505012005 | 75 | 128 | 4.3 | 8.7 | 0.00 | 0.00 | 0.00 | 73 | 1009.4 |
| 20260505011005 | 75 | 151 | 3.5 | 7.8 | 0.00 | 0.00 | 0.00 | 73 | 1009.6 |
| 20260505010504 | 75 | 147 | 0.9 | 7.8 | 0.00 | 0.00 | 0.00 | 73 | 1009.5 |
| 20260505010007 | 75 | 165 | 0.9 | 6.1 | 0.00 | 0.00 | 0.00 | 72 | 1009.5 |
| 20260505005504 | 75 | 150 | 0.9 | 4.3 | 0.00 | 0.00 | 0.00 | 72 | 1009.6 |
| 20260505005006 | 76 | 149 | 2.6 | 7.8 | 0.00 | 0.00 | 0.00 | 71 | 1009.5 |
| 20260505004504 | 76 | 154 | 0.9 | 8.7 | 0.00 | 0.00 | 0.00 | 71 | 1009.4 |
| 20260505003504 | 76 | 137 | 0.0 | 5.2 | 0.00 | 0.00 | 0.00 | 70 | 1009.4 |
| 20260505003005 | 76 | 148 | 2.6 | 7.0 | 0.00 | 0.00 | 0.00 | 70 | 1009.4 |
| 20260505002504 | 76 | 143 | 0.9 | 9.6 | 0.00 | 0.00 | 0.00 | 70 | 1009.4 |
| 20260505002004 | 77 | 135 | 1.7 | 9.6 | 0.00 | 0.00 | 0.00 | 70 | 1009.5 |
| 20260505001504 | 77 | 172 | 5.2 | 8.7 | 0.00 | 0.00 | 0.00 | 70 | 1009.4 |
| 20260505001005 | 77 | 117 | 3.5 | 7.8 | 0.00 | 0.00 | 0.00 | 70 | 1009.6 |
| 20260505000504 | 77 | 121 | 2.6 | 10.4 | 0.00 | 0.00 | 0.00 | 69 | 1009.5 |
| 20260504235504 | 77 | 178 | 4.3 | 10.4 | 0.00 | 0.00 | 0.00 | 68 | 1009.7 |
| 20260504234504 | 78 | 92 | 0.9 | 10.4 | 0.00 | 0.00 | 0.00 | 67 | 1009.5 |
| 20260504234004 | 78 | 158 | 2.6 | 9.6 | 0.00 | 0.00 | 0.00 | 67 | 1009.7 |
| 20260504233507 | 78 | 144 | 3.5 | 9.6 | 0.00 | 0.00 | 0.00 | 67 | 1009.7 |
| 20260504233005 | 78 | 185 | 1.7 | 10.4 | 0.00 | 0.00 | 0.00 | 67 | 1009.7 |
| 20260504232505 | 79 | 140 | 7.8 | 10.4 | 0.00 | 0.00 | 0.00 | 66 | 1009.6 |
| 20260504232006 | 79 | 123 | 3.5 | 7.8 | 0.00 | 0.00 | 0.00 | 65 | 1009.8 |
| 20260504231504 | 79 | 139 | 0.9 | 8.7 | 0.00 | 0.00 | 0.00 | 65 | 1009.7 |
| 20260504231005 | 80 | 178 | 1.7 | 8.7 | 0.00 | 0.00 | 0.00 | 64 | 1009.8 |
| 20260504230505 | 80 | 108 | 1.7 | 7.8 | 0.00 | 0.00 | 0.00 | 63 | 1009.8 |
| 20260504230007 | 80 | 175 | 1.7 | 7.8 | 0.00 | 0.00 | 0.00 | 62 | 1010.0 |
| 20260504225005 | 80 | 267 | 0.9 | 10.4 | 0.00 | 0.00 | 0.00 | 62 | 1009.8 |
| 20260504224504 | 80 | 174 | 2.6 | 7.8 | 0.00 | 0.00 | 0.00 | 61 | 1009.8 |
| 20260504224004 | 81 | 160 | 0.9 | 7.8 | 0.00 | 0.00 | 0.00 | 60 | 1010.0 |
| 20260504223005 | 81 | 159 | 5.2 | 7.8 | 0.00 | 0.00 | 0.00 | 59 | 1010.1 |
| 20260504222506 | 81 | 174 | 4.3 | 6.1 | 0.00 | 0.00 | 0.00 | 60 | 1010.1 |
| 20260504221504 | 81 | 175 | 2.6 | 7.0 | 0.00 | 0.00 | 0.00 | 59 | 1010.4 |
| 20260504220505 | 81 | 207 | 1.7 | 7.8 | 0.00 | 0.00 | 0.00 | 58 | 1010.4 |
| 20260504220007 | 81 | 163 | 5.2 | 10.4 | 0.00 | 0.00 | 0.00 | 58 | 1010.2 |
| 20260504215504 | 81 | 85 | 4.3 | 8.7 | 0.00 | 0.00 | 0.00 | 58 | 1010.4 |
| 20260504215005 | 82 | 147 | 0.0 | 7.0 | 0.00 | 0.00 | 0.00 | 58 | 1010.3 |
| 20260504214506 | 82 | 144 | 2.6 | 8.7 | 0.00 | 0.00 | 0.00 | 57 | 1010.7 |
| 20260504213504 | 83 | 184 | 4.3 | 5.2 | 0.00 | 0.00 | 0.00 | 57 | 1010.7 |
| 20260504212505 | 82 | 167 | 2.6 | 7.8 | 0.00 | 0.00 | 0.00 | 56 | 1010.7 |
| 20260504212004 | 82 | 133 | 1.7 | 9.6 | 0.00 | 0.00 | 0.00 | 57 | 1010.9 |
| 20260504211005 | 82 | 117 | 3.5 | 8.7 | 0.00 | 0.00 | 0.00 | 57 | 1011.2 |
| 20260504210007 | 82 | 175 | 7.0 | 7.8 | 0.00 | 0.00 | 0.00 | 57 | 1011.3 |
| 20260504205504 | 83 | 195 | 1.7 | 6.1 | 0.00 | 0.00 | 0.00 | 55 | 1011.3 |
| 20260504205006 | 84 | 171 | 1.7 | 5.2 | 0.00 | 0.00 | 0.00 | 54 | 1011.4 |
| 20260504204505 | 83 | 182 | 3.5 | 6.1 | 0.00 | 0.00 | 0.00 | 56 | 1011.6 |
| 20260504204006 | 83 | 112 | 0.9 | 9.6 | 0.00 | 0.00 | 0.00 | 56 | 1011.7 |
| 20260504203009 | 82 | 233 | 1.7 | 8.7 | 0.00 | 0.00 | 0.00 | 56 | 1011.7 |
| 20260504202004 | 82 | 100 | 0.9 | 7.0 | 0.00 | 0.00 | 0.00 | 57 | 1011.9 |
| 20260504201005 | 83 | 207 | 4.3 | 9.6 | 0.00 | 0.00 | 0.00 | 55 | 1012.0 |
| 20260504200504 | 83 | 169 | 0.0 | 6.1 | 0.00 | 0.00 | 0.00 | 57 | 1012.1 |
| 20260504195505 | 83 | 182 | 1.7 | 8.7 | 0.00 | 0.00 | 0.00 | 56 | 1012.3 |
| 20260504195008 | 82 | 199 | 2.6 | 4.3 | 0.00 | 0.00 | 0.00 | 54 | 1012.4 |
| 20260504194505 | 83 | 163 | 4.3 | 7.0 | 0.00 | 0.00 | 0.00 | 56 | 1012.4 |
| 20260504194007 | 83 | 263 | 2.6 | 9.6 | 0.00 | 0.00 | 0.00 | 54 | 1012.5 |
| 20260504193503 | 83 | 182 | 5.2 | 9.6 | 0.00 | 0.00 | 0.00 | 56 | 1012.6 |
| 20260504193004 | 81 | 236 | 3.5 | 7.0 | 0.00 | 0.00 | 0.00 | 56 | 1012.6 |
| 20260504192505 | 81 | 229 | 1.7 | 5.2 | 0.00 | 0.00 | 0.00 | 56 | 1012.7 |
| 20260504192004 | 82 | 122 | 3.5 | 7.0 | 0.00 | 0.00 | 0.00 | 55 | 1012.6 |
| 20260504191506 | 82 | 227 | 2.6 | 7.0 | 0.00 | 0.00 | 0.00 | 54 | 1012.8 |
| 20260504191004 | 82 | 211 | 2.6 | 7.8 | 0.00 | 0.00 | 0.00 | 55 | 1013.1 |
| 20260504190505 | 82 | 245 | 6.1 | 7.8 | 0.00 | 0.00 | 0.00 | 57 | 1013.1 |
| 20260504185503 | 82 | 215 | 4.3 | 10.4 | 0.00 | 0.00 | 0.00 | 55 | 1013.2 |
| 20260504185005 | 81 | 245 | 0.9 | 8.7 | 0.00 | 0.00 | 0.00 | 55 | 1013.2 |
| 20260504184004 | 82 | 171 | 3.5 | 6.1 | 0.00 | 0.00 | 0.00 | 57 | 1013.3 |
| 20260504183504 | 80 | 174 | 0.9 | 7.0 | 0.00 | 0.00 | 0.00 | 57 | 1013.3 |
| 20260504183008 | 80 | 166 | 5.2 | 9.6 | 0.00 | 0.00 | 0.00 | 57 | 1013.3 |
| 20260504182505 | 81 | 119 | 3.5 | 9.6 | 0.00 | 0.00 | 0.00 | 56 | 1013.5 |
| 20260504182004 | 81 | 224 | 3.5 | 9.6 | 0.00 | 0.00 | 0.00 | 57 | 1013.4 |
| 20260504181503 | 80 | 196 | 3.5 | 9.6 | 0.00 | 0.00 | 0.00 | 58 | 1013.6 |
| 20260504181005 | 80 | 182 | 1.7 | 8.7 | 0.00 | 0.00 | 0.00 | 57 | 1013.7 |
| 20260504180505 | 80 | 159 | 5.2 | 9.6 | 0.00 | 0.00 | 0.00 | 57 | 1013.8 |
| 20260504175004 | 81 | 130 | 7.0 | 9.6 | 0.00 | 0.00 | 0.00 | 56 | 1013.9 |
| 20260504174506 | 80 | 360 | 1.7 | 7.0 | 0.00 | 0.00 | 0.00 | 56 | 1013.9 |
| 20260504174003 | 80 | 177 | 4.3 | 7.8 | 0.00 | 0.00 | 0.00 | 58 | 1014.0 |
| 20260504173503 | 79 | 207 | 4.3 | 7.0 | 0.00 | 0.00 | 0.00 | 58 | 1014.1 |
| 20260504172505 | 79 | 132 | 1.7 | 10.4 | 0.00 | 0.00 | 0.00 | 59 | 1014.4 |
| 20260504172004 | 79 | 169 | 3.5 | 13.9 | 0.00 | 0.00 | 0.00 | 56 | 1014.4 |
| 20260504171004 | 80 | 182 | 0.0 | 7.8 | 0.00 | 0.00 | 0.00 | 57 | 1014.5 |
| 20260504170506 | 79 | 137 | 1.7 | 9.6 | 0.00 | 0.00 | 0.00 | 59 | 1014.6 |
| 20260504150506 | 75 | 111 | 0.9 | 8.7 | 0.00 | 0.00 | 0.00 | 63 | 1015.5 |
| 20260504141008 | 71 | 165 | 0.9 | 5.2 | 0.00 | 0.00 | 0.00 | 68 | 1015.4 |
| 20260504140503 | 71 | 239 | 0.9 | 5.2 | 0.00 | 0.00 | 0.00 | 69 | 1015.3 |
| 20260504130506 | 60 | 233 | 1.7 | 2.6 | 0.00 | 0.00 | 0.00 | 89 | 1015.3 |
| 20260504110507 | 56 | 155 | 0.0 | 0.0 | 0.00 | 0.00 | 0.00 | 89 | 1014.7 |
| 20260504100508 | 56 | 155 | 0.0 | 0.0 | 0.00 | 0.00 | 0.00 | 87 | 1014.9 |
| 20260504081506 | 59 | 155 | 0.0 | 0.0 | 0.00 | 0.00 | 0.00 | 82 | 1016.0 |
| 20260504080504 | 59 | 155 | 0.0 | 0.0 | 0.00 | 0.00 | 0.00 | 82 | 1015.9 |
| 20260504050504 | 62 | 155 | 0.0 | 0.0 | 0.00 | 0.00 | 0.00 | 74 | 1017.6 |